Oconto, WI

2:01 PM CDT on March 27, 2017 (GMT -0500)
Oconto Municipal

Weather History for KOCQ - May, 2013

Change the Weather History Date:

Sunday, May 19, 2013

  Actual Average Record
Temperature  
Mean Temperature 62 °F -  
Max Temperature 78 °F 69 °F 78 °F (2013)
Min Temperature 47 °F 44 °F 32 °F (2015)
Degree Days  
Heating Degree Days 2    
Growing Degree Days 12 (Base 50)    
Moisture  
Dew Point 56 °F    
Average Humidity 75    
Maximum Humidity 97    
Minimum Humidity 56    
Precipitation  
Precipitation 0.00 in - - ()
Sea Level Pressure  
Sea Level Pressure 29.88 in    
Wind  
Wind Speed 4 mph (SE)    
Max Wind Speed 16 mph    
Max Gust Speed 22 mph    
Visibility 10 miles    
Events      
Averages and records for this station are not official NWS values.
T = Trace of Precipitation, MM = Missing Value Source: NWS Daily Summary

Daily Weather History Graph

Daily Weather History Graph

Search for Another Location

Airport or City:

Trip Planner

Search our weather history database for the weather conditions in past years. The results will help you decide how hot, cold, wet, or windy it might be!

Date:

Astronomy

May. 19, 2013 Rise Set
Actual Time 5:18 AM CDT 8:18 PM CDT
Civil Twilight 4:43 AM CDT 8:53 PM CDT
Nautical Twilight 3:59 AM CDT 9:37 PM CDT
Astronomical Twilight 3:06 AM CDT 10:31 PM CDT
Moon 2:07 PM CDT (5/19) 1:57 AM CDT (5/19)
Length of Visible Light 16h 09m
Length of Day
14h 59m
Waxing Gibbous, 65% of the Moon is Illuminated
May 19
Waxing Gibbous
May 24
Full
May 31
Last Quarter
Jun 8
New
Jun 16
First Quarter

Hourly Weather History & Observations

Time (CDT) Temp. Dew Point Humidity Pressure Visibility Wind Dir Wind Speed Gust Speed Precip Events Conditions
12:15 AM 52.0 °F 48.2 °F 87% 29.96 in 10.0 mi Calm Calm - N/A   Clear
12:35 AM 51.8 °F 48.0 °F 87% 29.96 in 10.0 mi Calm Calm - N/A   Clear
12:55 AM 49.8 °F 48.0 °F 94% 29.95 in 10.0 mi ESE 3.5 mph - N/A   Clear
1:15 AM 49.8 °F 47.7 °F 92% 29.94 in 10.0 mi Calm Calm - N/A   Clear
1:35 AM 50.5 °F 47.5 °F 89% 29.94 in 10.0 mi Calm Calm - N/A   Clear
1:55 AM 50.2 °F 47.5 °F 90% 29.94 in 10.0 mi Calm Calm - N/A   Clear
2:15 AM 49.1 °F 47.3 °F 93% 29.94 in 10.0 mi Calm Calm - N/A   Clear
2:35 AM 49.3 °F 47.3 °F 93% 29.94 in 10.0 mi Calm Calm - N/A   Clear
2:55 AM 48.7 °F 47.1 °F 94% 29.94 in 10.0 mi Calm Calm - N/A   Clear
3:15 AM 47.5 °F 46.4 °F 96% 29.93 in 7.0 mi Calm Calm - N/A   Clear
3:35 AM 47.8 °F 45.9 °F 93% 29.94 in 10.0 mi Calm Calm - N/A   Clear
3:55 AM 48.7 °F 47.3 °F 95% 29.94 in 10.0 mi Calm Calm - N/A   Clear
4:15 AM 48.0 °F 46.8 °F 95% 29.94 in 10.0 mi Calm Calm - N/A   Clear
4:35 AM 47.8 °F 46.6 °F 95% 29.95 in 10.0 mi Calm Calm - N/A   Clear
4:55 AM 48.0 °F 46.4 °F 94% 29.95 in 10.0 mi Calm Calm - N/A   Clear
5:15 AM 47.3 °F 46.0 °F 95% 29.97 in 10.0 mi Calm Calm - N/A   Clear
5:35 AM 47.3 °F 46.4 °F 97% 29.96 in 7.0 mi Calm Calm - N/A   Clear
5:55 AM 48.2 °F 47.3 °F 97% 29.96 in 7.0 mi Calm Calm - N/A   Clear
6:15 AM 49.3 °F 48.2 °F 96% 29.95 in 7.0 mi Calm Calm - N/A   Clear
6:35 AM 51.1 °F 49.3 °F 94% 29.94 in 7.0 mi Calm Calm - N/A   Clear
7:15 AM 55.6 °F 50.7 °F 84% 29.95 in 10.0 mi Calm Calm - N/A   Clear
7:35 AM 59.0 °F 52.2 °F 78% 29.95 in 10.0 mi SSE 3.5 mph - N/A   Clear
7:55 AM 62.4 °F 53.6 °F 73% 29.94 in 10.0 mi South 3.5 mph - N/A   Clear
8:15 AM 64.4 °F 54.1 °F 69% 29.94 in 10.0 mi SSE 6.9 mph - N/A   Clear
8:35 AM 66.4 °F 55.0 °F 67% 29.94 in 10.0 mi SSE 3.5 mph - N/A   Clear
8:55 AM 68.2 °F 55.8 °F 64% 29.94 in 10.0 mi SSE 4.6 mph - N/A   Clear
9:15 AM 70.0 °F 56.8 °F 63% 29.93 in 10.0 mi SSE 5.8 mph - N/A   Clear
9:55 AM 72.9 °F 59.2 °F 62% 29.92 in 10.0 mi SW 8.1 mph - N/A   Clear
10:15 AM 74.7 °F 59.0 °F 58% 29.92 in 10.0 mi South 3.5 mph - N/A   Clear
10:35 AM 74.1 °F 59.2 °F 59% 29.92 in 10.0 mi SE 8.1 mph - N/A   Clear
10:55 AM 74.5 °F 59.9 °F 60% 29.90 in 10.0 mi SSE 9.2 mph - N/A   Clear
11:15 AM 76.6 °F 61.0 °F 58% 29.90 in 10.0 mi SE 8.1 mph - N/A   Clear
11:35 AM 75.9 °F 61.0 °F 60% 29.89 in 10.0 mi SSE 6.9 mph - N/A   Clear
11:55 AM 77.7 °F 61.9 °F 58% 29.89 in 10.0 mi SSE 10.4 mph - N/A   Clear
12:15 PM 77.5 °F 61.9 °F 58% 29.87 in 10.0 mi SSE 9.2 mph - N/A   Clear
12:35 PM 77.0 °F 61.7 °F 59% 29.86 in 10.0 mi SSE 6.9 mph - N/A   Clear
12:55 PM 76.5 °F 61.9 °F 61% 29.84 in 10.0 mi ESE 11.5 mph - N/A   Clear
1:15 PM 77.4 °F 62.2 °F 59% 29.83 in 10.0 mi SE 9.2 mph - N/A   Clear
1:35 PM 72.7 °F 60.4 °F 65% 29.83 in 10.0 mi East 5.8 mph - N/A   Clear
2:15 PM 78.1 °F 61.3 °F 56% 29.79 in 10.0 mi ESE 12.7 mph 17.3 mph N/A   Clear
2:35 PM 77.5 °F 61.3 °F 57% 29.81 in 10.0 mi SE 16.1 mph 20.7 mph N/A   Clear
3:15 PM 76.5 °F 61.5 °F 60% 29.86 in 10.0 mi SSE 9.2 mph 19.6 mph N/A   Clear
3:35 PM 77.2 °F 61.7 °F 59% 29.85 in 10.0 mi SSE 12.7 mph 17.3 mph N/A   Clear
3:55 PM 76.6 °F 61.5 °F 59% 29.86 in 10.0 mi SSE 12.7 mph 17.3 mph N/A   Clear
4:15 PM 76.5 °F 61.2 °F 59% 29.85 in 10.0 mi SSE 11.5 mph 21.9 mph N/A   Clear
4:35 PM 76.8 °F 61.2 °F 58% 29.84 in 10.0 mi SSE 10.4 mph 18.4 mph N/A   Clear
4:55 PM 77.0 °F 61.3 °F 58% 29.84 in 10.0 mi South 10.4 mph 17.3 mph N/A   Clear
5:15 PM 76.3 °F 61.7 °F 60% 29.82 in 10.0 mi SE 12.7 mph 16.1 mph N/A   Clear
5:35 PM 76.5 °F 61.7 °F 60% 29.81 in 10.0 mi SSE 9.2 mph - N/A   Clear
5:55 PM 76.1 °F 61.7 °F 61% 29.80 in 10.0 mi SSE 9.2 mph 16.1 mph N/A   Clear
6:15 PM 75.7 °F 61.7 °F 62% 29.79 in 10.0 mi SE 9.2 mph - N/A   Clear
6:35 PM 75.4 °F 61.9 °F 63% 29.78 in 10.0 mi SE 9.2 mph - N/A   Clear
6:55 PM 75.2 °F 61.7 °F 63% 29.78 in 10.0 mi ESE 6.9 mph - N/A   Clear
7:15 PM 73.2 °F 61.2 °F 66% 29.78 in 10.0 mi ESE 8.1 mph - N/A   Clear
7:35 PM 71.4 °F 60.8 °F 69% 29.78 in 10.0 mi ESE 4.6 mph - N/A   Clear
7:55 PM 70.0 °F 60.4 °F 72% 29.78 in 10.0 mi ESE 9.2 mph - N/A   Clear
8:15 PM 68.9 °F 59.9 °F 73% 29.78 in 10.0 mi ESE 8.1 mph - N/A   Clear
8:35 PM 68.4 °F 59.9 °F 74% 29.79 in 10.0 mi SE 5.8 mph - N/A   Clear
8:55 PM 66.9 °F 59.9 °F 78% 29.81 in 10.0 mi ESE 3.5 mph - N/A   Clear
9:15 PM 66.0 °F 59.4 °F 79% 29.81 in 10.0 mi SSE 4.6 mph - N/A   Clear
9:35 PM 65.3 °F 59.0 °F 80% 29.80 in 10.0 mi SE 4.6 mph - N/A   Clear
9:55 PM 64.4 °F 58.8 °F 82% 29.81 in 10.0 mi ESE 4.6 mph - N/A   Clear
10:15 PM 63.7 °F 58.6 °F 84% 29.79 in 10.0 mi East 6.9 mph - N/A   Clear
10:35 PM 61.7 °F 58.1 °F 88% 29.80 in 7.0 mi ESE 9.2 mph - N/A   Clear
10:55 PM 58.3 °F 55.2 °F 90% 29.80 in 5.0 mi East 8.1 mph - N/A   Clear
11:15 PM 56.5 °F 53.8 °F 91% 29.80 in 5.0 mi East 6.9 mph - N/A   Clear
11:35 PM 55.8 °F 52.7 °F 89% 29.80 in 7.0 mi East 4.6 mph - N/A   Clear
11:55 PM 55.6 °F 52.7 °F 90% 29.80 in 7.0 mi East 4.6 mph - N/A   Clear